Location: Dannhausen
(51.8650°N, 10.1026°E)
Time: 00:38:20
(UTC+00:00)

SAR-Lupe-2 - Pass Details

Date: 09 April 2020
Orbit: 481 x 485 km, 98.1° (Epoch: 27 May)

Event Time Altitude Azimuth Distance (km) Brightness Sun altitude
Rises 20:14:07 0° 14° (NNE) 2,558 7.6 -18.1°
Reaches altitude 10° 20:16:12 10° 15° (NNE) 1,673 6.6 -18.3°
Maximum altitude 20:19:48 88° 108° (ESE) 490 3.4 -18.7°
Enters shadow 20:21:13 35° 194° (SSW) 802 4.4 -18.9°
